[[{"header":{"parameterUnit":"m.s-1","parameterCategory":1,"la1":30.2991,"la2":30.254,"lo1":-89.0895,"lo2":-89.0444,"dy":0.0017,"dx":0.0017,"nx":28,"ny":28,"refTime":"2025-08-07T21:00:00:Z","depth":0,"parameterNumber":2,"parameterNumberName":"U-component_of_WINDS"},"data":[0,0,0,0,0,0,0,0,0,0,0,0,0,0,0,0,0,0,0,0,0,0,0,0,0,0,0,0,0,0,0,0,0,0,0,0,0,0,0,0,0,0,0,0,0,0,0,0,0,0,0,0,0,0,0,0,0,0,-2.5827,-2.5826,0,-2.5786,-2.5785,-2.5785,-2.566,-2.5657,-2.5654,-2.5652,-2.5613,-2.5615,-2.5616,0,0,0,0,0,0,0,0,0,0,0,0,0,-2.58,-2.5801,-2.5827,-2.5826,-2.5826,-2.5786,-2.5785,-2.5785,-2.566,-2.5657,-2.5654,-2.565,-2.5613,-2.5614,-2.5616,0,0,0,0,0,0,0,0,0,0,0,0,0,-2.5791,-2.5802,-2.5827,-2.5759,-2.5752,-2.5786,-2.5785,-2.5785,-2.5661,-2.5657,-2.5653,-2.5649,-2.5612,-2.5614,-2.5617,-2.5714,0,0,-2.5624,-2.5625,0,0,0,0,0,0,0,0,-2.5792,-2.5792,-2.5769,-2.5764,-2.5756,-2.5724,-2.5761,-2.5761,-2.5662,-2.5696,-2.5652,-2.5647,-2.5653,-2.5652,-2.5654,-2.5712,-2.571,-2.5624,-2.5625,-2.5626,-2.5627,0,0,0,0,0,0,0,-2.5792,-2.5793,-2.5811,-2.5769,-2.5761,-2.5731,-2.5725,-2.5761,-2.5699,-2.5693,-2.5683,-2.568,-2.5649,-2.5652,-2.5652,-2.571,-2.5624,-2.5626,-2.5627,-2.5628,-2.5845,-2.5849,0,0,0,0,0,0,-2.5802,-2.5794,-2.5812,-2.5809,-2.5764,-2.5735,-2.5728,-2.5738,-2.5698,-2.5687,-2.5684,-2.5674,-2.565,-2.5649,-2.565,-2.576,-2.5626,-2.5628,-2.563,-2.5841,-2.5846,-2.5851,0,0,0,0,0,0,-2.5802,-2.5805,-2.5814,-2.5799,-2.5798,-2.574,-2.5752,-2.574,-2.5742,-2.5691,-2.5679,-2.5698,-2.5646,-2.5647,-2.5698,-2.5757,-2.5629,-2.5632,-2.5836,-2.5843,-2.5849,-2.5983,0,0,0,0,0,0,-2.5802,-2.5806,-2.5842,-2.5801,-2.5799,-2.5862,-2.5756,-2.5742,-2.5746,-2.5734,-2.5701,-2.5692,-2.5643,-2.5696,-2.5701,-2.5758,-2.5633,-2.583,-2.5839,-2.5847,-2.5973,-2.5993,-2.6011,0,0,0,0,0,-2.5801,-2.5882,-2.5844,-2.5847,-2.5843,-2.5866,-2.5865,-2.5807,-2.5751,-2.5787,-2.5754,-2.5693,-2.575,-2.5702,-2.5707,-2.5766,-2.5826,-2.5836,-2.5846,-2.5965,-2.5989,-2.601,0,0,0,0,0,0,-2.5932,-2.5875,-2.5833,-2.5902,-2.589,-2.5845,-2.5888,-2.5835,-2.5839,-2.5827,-2.5756,-2.575,-2.5811,-2.5794,-2.5741,-2.5858,-2.5778,-2.5789,-2.5867,-2.589,-2.5908,-2.5911,-2.5635,0,0,0,0,0,-2.5969,-2.5992,-2.5941,-2.6008,-2.6003,-2.5947,-2.5955,-2.5911,-2.5896,-2.589,-2.5861,-2.585,-2.5864,-2.5876,-2.5888,-2.597,-2.5961,-2.6013,-2.6032,-2.6048,-2.6058,-2.61,-2.6122,-2.5883,-2.5883,-2.5883,0,0,-2.6046,-2.6017,-2.6036,-2.6033,-2.6018,-2.6044,-2.5944,-2.5975,-2.5994,-2.5895,-2.5942,-2.5921,-2.5903,-2.597,-2.5998,-2.5957,-2.6122,-2.606,-2.6073,-2.6075,-2.6113,-2.6135,-2.6155,-2.589,-2.5889,-2.5888,0,0,-2.6198,-2.6179,-2.6231,-2.6218,-2.6196,-2.6158,-2.6172,-2.6134,-2.6116,-2.6161,-2.6088,-2.611,-2.6137,-2.6127,-2.6126,-2.6275,-2.6218,-2.6281,-2.6379,-2.6421,-2.644,-2.6456,-2.6509,-2.6528,-2.6291,-2.6292,-2.6292,0,-2.6296,-2.633,-2.6266,-2.6301,-2.6302,-2.6213,-2.6266,-2.6257,-2.6241,-2.6244,-2.6198,-2.6231,-2.6213,-2.6276,-2.6313,-2.6315,-2.6327,-2.6284,-2.6442,-2.6458,-2.6472,-2.6521,-2.6541,-2.6299,-2.6299,-2.6298,-2.6297,0,-2.6452,-2.6477,-2.6523,-2.6508,-2.6514,-2.6558,-2.6501,-2.6515,-2.6471,-2.6438,-2.6486,-2.6461,-2.6465,-2.6477,-2.6435,-2.6535,-2.651,-2.6455,-2.6373,-2.6504,-2.6549,-2.6567,-2.631,-2.6308,-2.6305,-2.6303,0,0,-2.6685,-2.6633,-2.6651,-2.6643,-2.6612,-2.6631,-2.6672,-2.6675,-2.6688,-2.668,-2.6713,-2.6739,-2.6686,-2.6685,-2.6641,-2.6678,-2.6797,-2.6617,-2.6615,-2.6651,-2.6905,-2.6947,-2.697,-2.6759,-2.6762,-2.6765,-2.6906,0,-2.6829,-2.6894,-2.6837,-2.6913,-2.6936,-2.6851,-2.6887,-2.6873,-2.6844,-2.6859,-2.6827,-2.6846,-2.6776,-2.6775,-2.6807,-2.6775,-2.6847,-2.6764,-2.6789,-2.6791,-2.6796,-2.6993,-2.7038,-2.7172,-2.6924,-2.6927,-2.6929,0,-2.7005,-2.7003,-2.7082,-2.7045,-2.7053,-2.7085,-2.7083,-2.7099,-2.7082,-2.7058,-2.7056,-2.7002,-2.704,-2.6961,-2.7013,-2.6959,-2.6966,-2.6952,-2.6955,-2.6955,-2.6867,-2.6998,-2.7214,-2.7234,-2.6956,-2.6954,-2.6952,0,-2.7166,-2.7184,-2.7233,-2.7229,-2.7188,-2.7213,-2.7197,-2.7175,-2.718,-2.7179,-2.7182,-2.7186,-2.7189,-2.7194,-2.7142,-2.7089,-2.7201,-2.7117,-2.7182,-2.7184,-2.7209,-2.7208,-2.7429,-2.7215,-2.7215,-2.7215,-2.7214,0,-2.7332,-2.7383,-2.7305,-2.7335,-2.739,-2.7324,-2.7381,-2.7356,-2.7338,-2.7362,-2.7291,-2.7316,-2.7246,-2.7264,-2.7225,-2.7274,-2.7276,-2.7258,-2.7246,-2.7264,-2.7266,-2.7267,-2.7256,-2.722,-2.7219,-2.7218,-2.7217,0,-2.7521,-2.7471,-2.7518,-2.7475,-2.7466,-2.7508,-2.7472,-2.7498,-2.7464,-2.7496,-2.75,-2.7447,-2.7465,-2.7414,-2.7424,-2.7397,-2.7468,-2.7442,-2.7474,-2.7466,-2.7533,-2.7528,-2.7761,-2.7789,-2.7559,-2.7561,-2.7563,0,-2.763,-2.7667,-2.7628,-2.7638,-2.7626,-2.7644,-2.7649,-2.7586,-2.7594,-2.7577,-2.7606,-2.7617,-2.7622,-2.7654,-2.7618,-2.7625,-2.7598,-2.768,-2.7599,-2.7615,-2.7599,-2.7597,-2.76,-2.7696,-2.7699,-2.7701,-2.7703,0,-2.7828,-2.7801,-2.7809,-2.781,-2.7817,-2.7815,-2.7807,-2.7821,-2.7753,-2.7766,-2.7782,-2.7787,-2.7796,-2.7808,-2.7808,-2.7793,-2.7738,-2.7729,-2.7744,-2.7762,-2.7778,-2.777,-2.7519,-2.7724,-2.7722,-2.772,-2.7719,-2.7718,-2.7979,-2.8008,-2.7984,-2.7997,-2.7984,-2.7979,-2.8002,-2.797,-2.7982,-2.7983,-2.7946,-2.797,-2.7952,-2.7945,-2.7936,-2.7954,-2.7917,-2.7939,-2.7945,-2.7951,-2.7962,-2.7776,-2.7954,-2.7953,-2.7953,-2.7952,-2.7952,0,-2.8173,-2.8153,-2.8165,-2.8156,-2.8166,-2.8112,-2.8101,-2.8113,-2.8135,-2.8122,-2.8128,-2.8147,-2.8159,-2.8123,-2.8129,-2.8151,-2.8126,-2.8155,-2.8153,-2.815,-2.7995,-2.7981,-2.8175,-2.8175,-2.8175,-2.8175,-2.8175,-2.8175,-2.8274,-2.832,-2.829,-2.8329,-2.8309,-2.8331,-2.8329,-2.8325,-2.8313,-2.8337,-2.8346,-2.8322,-2.83,-2.8304,-2.8313,-2.8302,-2.8308,-2.8346,-2.8327,-2.8183,-2.8161,-2.814,-2.8126,-2.8348,-2.8348,-2.8479,-2.848,-2.8481]},{"header":{"parameterUnit":"m.s-1","parameterCategory":1,"la1":30.2991,"la2":30.254,"lo1":-89.0895,"lo2":-89.0444,"dy":0.0017,"dx":0.0017,"nx":28,"ny":28,"refTime":"2025-08-07T21:00:00:Z","depth":0,"parameterNumber":3,"parameterNumberName":"V-component_of_WINDS"},"data":[0,0,0,0,0,0,0,0,0,0,0,0,0,0,0,0,0,0,0,0,0,0,0,0,0,0,0,0,0,0,0,0,0,0,0,0,0,0,0,0,0,0,0,0,0,0,0,0,0,0,0,0,0,0,0,0,0,0,-1.164,-1.1641,0,-1.1715,-1.1716,-1.1716,-1.1746,-1.1746,-1.1746,-1.1746,-1.1823,-1.1825,-1.1827,0,0,0,0,0,0,0,0,0,0,0,0,0,-1.1523,-1.1525,-1.164,-1.1641,-1.1642,-1.1715,-1.1716,-1.1717,-1.1746,-1.1746,-1.1746,-1.1746,-1.1822,-1.1825,-1.1827,0,0,0,0,0,0,0,0,0,0,0,0,0,-1.1584,-1.1526,-1.164,-1.1665,-1.1669,-1.1714,-1.1716,-1.1717,-1.1746,-1.1746,-1.1746,-1.1746,-1.1821,-1.1824,-1.1828,-1.1854,0,0,-1.1838,-1.1839,0,0,0,0,0,0,0,0,-1.158,-1.1588,-1.1661,-1.1664,-1.1667,-1.1721,-1.1703,-1.1763,-1.1747,-1.1717,-1.1746,-1.1746,-1.1789,-1.1795,-1.181,-1.1857,-1.1861,-1.1838,-1.184,-1.1842,-1.1843,0,0,0,0,0,0,0,-1.1576,-1.1585,-1.167,-1.1662,-1.1666,-1.1673,-1.1682,-1.1714,-1.1754,-1.1719,-1.1722,-1.173,-1.1791,-1.1806,-1.1812,-1.1862,-1.1838,-1.1841,-1.1843,-1.1844,-1.1934,-1.1934,0,0,0,0,0,0,-1.1567,-1.1581,-1.1667,-1.1672,-1.1622,-1.1676,-1.1685,-1.1704,-1.1753,-1.1761,-1.173,-1.1731,-1.1801,-1.1808,-1.1815,-1.1848,-1.1842,-1.1845,-1.1847,-1.1933,-1.1934,-1.1934,0,0,0,0,0,0,-1.1565,-1.1575,-1.1664,-1.1627,-1.1639,-1.1678,-1.1699,-1.1706,-1.1721,-1.1762,-1.1769,-1.1739,-1.1801,-1.181,-1.1844,-1.1851,-1.1846,-1.1849,-1.1933,-1.1934,-1.1934,-1.1915,0,0,0,0,0,0,-1.1561,-1.1574,-1.1584,-1.1627,-1.1641,-1.1692,-1.17,-1.1707,-1.1727,-1.1729,-1.1772,-1.1778,-1.1801,-1.1838,-1.1847,-1.1855,-1.1852,-1.1932,-1.1933,-1.1934,-1.1915,-1.1915,-1.1914,0,0,0,0,0,-1.1557,-1.1576,-1.1584,-1.1595,-1.1655,-1.1692,-1.17,-1.1726,-1.1727,-1.1738,-1.1764,-1.1777,-1.1849,-1.1842,-1.1851,-1.1861,-1.1932,-1.1933,-1.1934,-1.1915,-1.1915,-1.1914,0,0,0,0,0,0,-1.1533,-1.1582,-1.1592,-1.1625,-1.1654,-1.1697,-1.1711,-1.1725,-1.1754,-1.1755,-1.1786,-1.1795,-1.1826,-1.1847,-1.1838,-1.1889,-1.1891,-1.1894,-1.1874,-1.1874,-1.1874,-1.1868,-1.1855,0,0,0,0,0,-1.1531,-1.1558,-1.1599,-1.1624,-1.1639,-1.1672,-1.169,-1.1707,-1.1739,-1.1751,-1.1779,-1.181,-1.1839,-1.1858,-1.1887,-1.1918,-1.1928,-1.193,-1.1929,-1.1929,-1.1931,-1.1949,-1.195,-1.1937,-1.1937,-1.1937,0,0,-1.1528,-1.1559,-1.1573,-1.162,-1.1645,-1.1671,-1.1683,-1.171,-1.173,-1.1755,-1.1789,-1.1811,-1.1846,-1.1879,-1.1894,-1.1897,-1.1937,-1.193,-1.1929,-1.1932,-1.195,-1.1951,-1.1952,-1.1938,-1.1938,-1.1938,0,0,-1.1537,-1.1562,-1.1586,-1.161,-1.1647,-1.167,-1.1675,-1.1716,-1.1731,-1.1765,-1.1785,-1.1809,-1.1859,-1.1883,-1.1902,-1.1919,-1.1932,-1.1928,-1.1926,-1.1943,-1.1944,-1.1945,-1.1951,-1.1953,-1.193,-1.193,-1.193,0,-1.1529,-1.157,-1.1596,-1.1623,-1.1643,-1.1667,-1.1691,-1.1713,-1.1758,-1.1771,-1.1773,-1.1836,-1.1862,-1.19,-1.1904,-1.1919,-1.1926,-1.1923,-1.1942,-1.1943,-1.1945,-1.1951,-1.1953,-1.1929,-1.1929,-1.1929,-1.1929,0,-1.1557,-1.1585,-1.16,-1.1642,-1.1664,-1.1689,-1.172,-1.1739,-1.1754,-1.1776,-1.181,-1.1842,-1.1877,-1.1888,-1.1903,-1.1928,-1.1929,-1.1936,-1.194,-1.1945,-1.1951,-1.1953,-1.1928,-1.1928,-1.1928,-1.1929,0,0,-1.1553,-1.1609,-1.1614,-1.1633,-1.1676,-1.1698,-1.1724,-1.1759,-1.1774,-1.1804,-1.1827,-1.1868,-1.1875,-1.1896,-1.1915,-1.193,-1.1941,-1.1935,-1.1937,-1.1935,-1.197,-1.1964,-1.1966,-1.195,-1.195,-1.1951,-1.1967,0,-1.1567,-1.1615,-1.1639,-1.1677,-1.1703,-1.1725,-1.1748,-1.1776,-1.1797,-1.1823,-1.1846,-1.1875,-1.1882,-1.1895,-1.1911,-1.1936,-1.1948,-1.1935,-1.1971,-1.1972,-1.1961,-1.197,-1.1964,-1.1978,-1.197,-1.197,-1.197,0,-1.159,-1.1619,-1.1658,-1.1697,-1.1709,-1.1729,-1.1763,-1.1787,-1.1819,-1.1833,-1.1857,-1.1875,-1.1903,-1.1905,-1.1944,-1.1935,-1.1951,-1.1965,-1.1967,-1.1971,-1.1972,-1.1974,-1.1983,-1.1985,-1.1974,-1.1974,-1.1974,0,-1.1582,-1.1631,-1.1661,-1.1677,-1.1723,-1.1737,-1.1756,-1.1789,-1.1808,-1.1837,-1.185,-1.1883,-1.19,-1.1925,-1.1951,-1.195,-1.1988,-1.1991,-1.2,-1.2,-1.2008,-1.2007,-1.2019,-1.2018,-1.2018,-1.2018,-1.2018,0,-1.1595,-1.1618,-1.1658,-1.1677,-1.1703,-1.1732,-1.1757,-1.1779,-1.1807,-1.183,-1.1852,-1.1873,-1.1906,-1.1932,-1.1952,-1.1982,-1.1989,-1.2002,-1.2007,-1.2,-1.1998,-1.2011,-1.2011,-1.2018,-1.2018,-1.2018,-1.2018,0,-1.1591,-1.1619,-1.1653,-1.1693,-1.1704,-1.1722,-1.1757,-1.1776,-1.1798,-1.1827,-1.1835,-1.187,-1.1901,-1.1929,-1.197,-1.1984,-1.2014,-1.202,-1.2003,-1.2005,-1.2013,-1.2012,-1.2033,-1.2038,-1.2034,-1.2034,-1.2034,0,-1.1597,-1.1615,-1.1658,-1.1675,-1.1694,-1.1721,-1.1741,-1.1769,-1.1789,-1.1827,-1.1841,-1.1873,-1.1901,-1.1949,-1.1978,-1.2009,-1.2017,-1.2022,-1.2022,-1.2014,-1.2017,-1.2015,-1.2017,-1.2022,-1.2022,-1.2021,-1.2021,0,-1.1605,-1.1618,-1.1645,-1.1677,-1.17,-1.1727,-1.1754,-1.1767,-1.18,-1.1821,-1.1853,-1.1874,-1.1916,-1.1948,-1.1982,-1.2003,-1.2018,-1.2021,-1.2025,-1.2018,-1.2007,-1.2013,-1.2001,-1.2021,-1.2021,-1.2021,-1.2021,-1.2021,-1.1607,-1.1624,-1.1656,-1.1686,-1.1709,-1.1734,-1.1754,-1.1778,-1.1805,-1.1841,-1.1856,-1.1888,-1.192,-1.1968,-1.1989,-1.2014,-1.2017,-1.2023,-1.2024,-1.2025,-1.2024,-1.2003,-1.202,-1.2021,-1.2021,-1.2021,-1.2021,0,-1.1616,-1.1638,-1.1665,-1.1702,-1.1725,-1.1737,-1.1768,-1.1786,-1.1814,-1.1843,-1.1869,-1.1905,-1.1936,-1.1967,-1.2,-1.2014,-1.2022,-1.2022,-1.2021,-1.2025,-1.2019,-1.2012,-1.2015,-1.2015,-1.2015,-1.2015,-1.2015,-1.2015,-1.1623,-1.1653,-1.1669,-1.1711,-1.1733,-1.1764,-1.1781,-1.1804,-1.1827,-1.1866,-1.1892,-1.1912,-1.1941,-1.1976,-1.2005,-1.2013,-1.2024,-1.2022,-1.2032,-1.2026,-1.2026,-1.2026,-1.202,-1.2024,-1.2024,-1.2036,-1.2037,-1.2037]}]]